Location: Newark
(48.1500°N, 2.9667°W)
Time: 22:36:58
(UTC+00:00)

deb Explorer IX - All Passes

Search period start: 18 January 2020 00:00
Search period end: 28 January 2020 00:00
Orbit: 548 x 1101 km, 38.8° (Epoch: 18 January)

Date Brightness Start Highest point End Pass type
(mag) Time Alt. Az. Time Alt. Az. Time Alt. Az.
18 Jan - 00:10:46 10° SSW 00:15:39 20° SSE 00:20:19 10° ESE night (unlit)
18 Jan - 01:55:49 10° SW 02:02:02 34° S 02:07:43 10° ESE night (unlit)
18 Jan - 03:42:34 10° WSW 03:48:36 35° S 03:53:56 10° SE visible
18 Jan - 05:30:17 10° WSW 05:34:46 21° SSW 05:38:49 10° SSE visible
18 Jan - 23:48:15 10° SSW 23:53:15 20° SSE 23:58:04 10° ESE night (unlit)
19 Jan - 01:33:20 10° SW 01:39:39 34° S 01:45:29 10° ESE night (unlit)
19 Jan - 03:20:04 10° WSW 03:26:14 35° S 03:31:45 10° SE visible
19 Jan - 05:07:48 10° WSW 05:12:27 21° SSW 05:16:40 10° SSE visible
19 Jan - 23:25:45 10° SSW 23:30:50 21° SSE 23:35:47 10° ESE night (unlit)
20 Jan - 01:10:50 10° SW 01:17:16 35° S 01:23:13 10° ESE night (unlit)
20 Jan - 02:57:34 10° WSW 03:03:52 36° S 03:09:32 10° SE visible
20 Jan - 04:45:17 10° WSW 04:50:06 22° SSW 04:54:29 10° SSE visible
20 Jan - 23:03:15 10° SSW 23:08:24 21° SSE 23:13:28 10° ESE night (unlit)
21 Jan - 00:48:21 10° SW 00:54:50 35° S 01:00:56 10° ESE night (unlit)
21 Jan - 02:35:05 10° WSW 02:41:29 37° S 02:47:17 10° SE night (unlit)
21 Jan - 04:22:46 10° WSW 04:27:44 22° SSW 04:32:17 10° SSE visible
21 Jan - 22:40:47 10° SSW 22:45:58 21° SSE 22:51:07 10° ESE night (unlit)
22 Jan - 00:25:53 10° SW 00:32:24 36° S 00:38:37 10° ESE night (unlit)
22 Jan - 02:12:35 10° WSW 02:19:04 37° S 02:25:01 10° SE night (unlit)
22 Jan - 04:00:15 10° WSW 04:05:22 22° SSW 04:10:03 10° SSE visible
22 Jan - 22:18:19 10° SSW 22:23:32 22° SSE 22:28:45 10° ESE night (unlit)
23 Jan - 00:03:25 10° SW 00:09:57 36° S 00:16:17 10° ESE night (unlit)
23 Jan - 01:50:05 10° WSW 01:56:38 37° S 02:02:44 10° ESE night (unlit)
23 Jan - 03:37:44 10° WSW 03:42:58 23° SSW 03:47:48 10° SSE visible
23 Jan - 21:55:53 10° SSW 22:01:05 22° SSE 22:06:20 10° ESE night (unlit)
23 Jan - 23:40:57 10° SW 23:47:30 37° S 23:53:54 10° ESE night (unlit)
24 Jan - 01:27:36 10° WSW 01:34:12 38° S 01:40:24 10° ESE night (unlit)
24 Jan - 03:15:13 10° WSW 03:20:33 23° SSW 03:25:32 10° SSE night (unlit)
24 Jan - 21:33:28 10° SSW 21:38:37 22° SSE 21:43:54 10° ESE night (unlit)
24 Jan - 23:18:31 10° SW 23:25:02 37° S 23:31:30 10° ESE night (unlit)
25 Jan - 01:05:07 10° WSW 01:11:44 38° S 01:18:03 10° ESE night (unlit)
25 Jan - 02:52:43 10° WSW 02:58:07 23° SSW 03:03:13 10° SSE night (unlit)
25 Jan - 21:11:03 10° SSW 21:16:10 22° SSE 21:21:26 10° ESE visible
25 Jan - 22:56:05 10° SW 23:02:33 37° S 23:09:05 10° ESE night (unlit)
26 Jan - 00:42:39 10° WSW 00:49:15 38° S 00:55:40 10° ESE night (unlit)
26 Jan - 02:30:12 10° WSW 02:35:41 24° SSW 02:40:52 10° SSE night (unlit)
26 Jan - 20:48:40 10° SSW 20:53:42 22° SSE 20:58:57 10° ESE visible
26 Jan - 22:33:40 10° SW 22:40:04 37° S 22:46:38 10° ESE night (unlit)
27 Jan - 00:20:11 10° WSW 00:26:47 38° S 00:33:16 10° ESE night (unlit)
27 Jan - 02:07:42 10° WSW 02:13:13 24° SSW 02:18:30 10° SSE night (unlit)
27 Jan - 20:26:18 10° SSW 20:31:14 22° SSE 20:36:26 10° ESE visible
27 Jan - 22:11:15 10° SW 22:17:34 37° S 22:24:09 10° ESE night (unlit)
